When you browse on this site, cookies collect data to enhance your experience and personalize the content and advertising you see.
Visit our Privacy Policy to learn more. By continuing to use the site, you agree to this use of cookies and data.
  • In Romania
  • List of Countries
  • For 7 days
  • Water Temperature
  • Weather Map
  • Weather Widgets
  • user-avatar
    Login

    Hourly Weather Passo Fundo

    Today, 9 April, Thursday

    Time Temperature Precipitation Wind Pressure Humidity
    00:00 +9°C° 0 mm 1 mps 708 mmHg 81%
    01:00 +7°C° 0 mm 2 mps 708 mmHg 84%
    02:00 +7°C° 0 mm 2 mps 708 mmHg 88%
    03:00 +7°C° 0 mm 2 mps 708 mmHg 91%
    04:00 +7°C° 0 mm 2 mps 707 mmHg 92%
    05:00 +6°C° 0 mm 2 mps 707 mmHg 94%
    06:00 +6°C° 0 mm 2 mps 707 mmHg 95%
    07:00 +8°C° 0 mm 2 mps 708 mmHg 88%
    08:00 +10°C° 0 mm 2 mps 708 mmHg 82%
    09:00 +13°C° 0 mm 2 mps 709 mmHg 76%
    10:00 +15°C° 0 mm 2 mps 709 mmHg 69%
    11:00 +17°C° 0 mm 2 mps 708 mmHg 63%
    12:00 +18°C° 0 mm 2 mps 708 mmHg 56%
    13:00 +19°C° 0 mm 2 mps 708 mmHg 54%
    14:00 +20°C° 0 mm 2 mps 708 mmHg 52%
    15:00 +20°C° 0 mm 2 mps 707 mmHg 50%
    16:00 +19°C° 0 mm 2 mps 707 mmHg 57%
    17:00 +18°C° 0 mm 2 mps 707 mmHg 63%
    18:00 +16°C° 0 mm 2 mps 707 mmHg 70%
    19:00 +15°C° 0 mm 2 mps 707 mmHg 76%
    20:00 +13°C° 0 mm 2 mps 707 mmHg 82%
    21:00 +10°C° 0 mm 2 mps 707 mmHg 88%
    22:00 +10°C° 0 mm 2 mps 707 mmHg 89%
    23:00 +10°C° 0 mm 2 mps 707 mmHg 90%

    Tomorrow, 10 April, Friday

    Time Temperature Precipitation Wind Pressure Humidity
    00:00 +9°C° 0 mm 2 mps 707 mmHg 91%
    01:00 +9°C° 0 mm 2 mps 707 mmHg 92%
    02:00 +9°C° 0 mm 2 mps 706 mmHg 93%
    03:00 +9°C° 0 mm 1 mps 706 mmHg 94%
    04:00 +9°C° 0 mm 1 mps 706 mmHg 95%
    05:00 +9°C° 0 mm 1 mps 706 mmHg 95%
    06:00 +9°C° 0 mm 1 mps 706 mmHg 96%
    07:00 +9°C° 0 mm 2 mps 707 mmHg 90%
    08:00 +12°C° 0 mm 2 mps 707 mmHg 85%
    09:00 +14°C° 0 mm 2 mps 708 mmHg 80%
    10:00 +15°C° 0 mm 2 mps 708 mmHg 74%
    11:00 +17°C° 0 mm 2 mps 708 mmHg 68%
    12:00 +18°C° 0 mm 3 mps 707 mmHg 61%
    13:00 +19°C° 0 mm 3 mps 707 mmHg 59%
    14:00 +20°C° 0 mm 3 mps 707 mmHg 56%
    15:00 +20°C° 0 mm 3 mps 706 mmHg 54%
    16:00 +19°C° 0 mm 3 mps 706 mmHg 61%
    17:00 +17°C° 0 mm 3 mps 706 mmHg 68%
    18:00 +16°C° 0 mm 2 mps 705 mmHg 75%
    19:00 +15°C° 0 mm 2 mps 706 mmHg 80%
    20:00 +13°C° 0 mm 2 mps 706 mmHg 85%
    21:00 +12°C° 0 mm 2 mps 706 mmHg 90%
    22:00 +12°C° 0 mm 2 mps 706 mmHg 91%
    23:00 +10°C° 0 mm 2 mps 706 mmHg 93%

    Day after tomorrow, 11 April, Saturday

    Time Temperature Precipitation Wind Pressure Humidity
    00:00 +10°C° 0 mm 2 mps 706 mmHg 94%
    01:00 +10°C° 0 mm 2 mps 706 mmHg 94%
    02:00 +9°C° 0 mm 2 mps 705 mmHg 95%
    03:00 +9°C° 0 mm 2 mps 705 mmHg 95%
    04:00 +9°C° 0 mm 2 mps 705 mmHg 95%
    05:00 +9°C° 0 mm 3 mps 705 mmHg 95%
    06:00 +9°C° 0 mm 3 mps 706 mmHg 95%
    07:00 +11°C° 0 mm 3 mps 706 mmHg 89%
    08:00 +13°C° 0 mm 3 mps 707 mmHg 83%
    09:00 +16°C° 0 mm 3 mps 707 mmHg 78%
    10:00 +18°C° 0 mm 3 mps 707 mmHg 69%
    11:00 +20°C° 0 mm 3 mps 707 mmHg 60%
    12:00 +23°C° 0 mm 2 mps 707 mmHg 51%
    13:00 +23°C° 0 mm 2 mps 707 mmHg 47%
    14:00 +24°C° 0 mm 2 mps 706 mmHg 44%
    15:00 +24°C° 0 mm 2 mps 706 mmHg 40%
    16:00 +23°C° 0 mm 2 mps 706 mmHg 48%
    17:00 +20°C° 0 mm 2 mps 706 mmHg 55%
    18:00 +18°C° 0 mm 2 mps 706 mmHg 62%
    19:00 +17°C° 0 mm 3 mps 706 mmHg 67%
    20:00 +16°C° 0 mm 3 mps 706 mmHg 71%
    21:00 +13°C° 0 mm 4 mps 706 mmHg 76%
    22:00 +13°C° 0 mm 4 mps 706 mmHg 80%
    23:00 +12°C° 0 mm 4 mps 706 mmHg 84%

    12 April, Sunday

    Time Temperature Precipitation Wind Pressure Humidity
    00:00 +12°C° 0 mm 4 mps 706 mmHg 87%
    01:00 +12°C° 0 mm 4 mps 706 mmHg 89%
    02:00 +12°C° 0 mm 4 mps 706 mmHg 91%
    03:00 +12°C° 0 mm 4 mps 706 mmHg 93%
    04:00 +12°C° 0 mm 4 mps 706 mmHg 93%
    05:00 +12°C° 0 mm 4 mps 706 mmHg 93%
    06:00 +12°C° 0 mm 4 mps 706 mmHg 93%
    07:00 +13°C° 0 mm 5 mps 707 mmHg 87%
    08:00 +15°C° 0 mm 5 mps 707 mmHg 82%
    09:00 +17°C° 0 mm 5 mps 708 mmHg 76%
    10:00 +20°C° 0 mm 4 mps 708 mmHg 68%
    11:00 +22°C° 0 mm 3 mps 708 mmHg 59%
    12:00 +25°C° 0 mm 3 mps 708 mmHg 51%
    13:00 +26°C° 0 mm 3 mps 707 mmHg 47%
    14:00 +26°C° 0 mm 2 mps 707 mmHg 42%
    15:00 +27°C° 0 mm 2 mps 706 mmHg 38%
    16:00 +25°C° 0 mm 2 mps 706 mmHg 44%
    17:00 +23°C° 0 mm 1 mps 705 mmHg 50%
    18:00 +21°C° 0 mm 1 mps 705 mmHg 56%
    19:00 +20°C° 0 mm 1 mps 705 mmHg 57%
    20:00 +19°C° 0 mm 1 mps 705 mmHg 58%
    21:00 +17°C° 0 mm 2 mps 705 mmHg 59%
    22:00 +16°C° 0 mm 2 mps 705 mmHg 62%
    23:00 +16°C° 0 mm 3 mps 705 mmHg 66%

    13 April, Monday

    Time Temperature Precipitation Wind Pressure Humidity
    00:00 +14°C° 0 mm 3 mps 705 mmHg 70%
    01:00 +14°C° 0 mm 4 mps 705 mmHg 74%
    02:00 +14°C° 0 mm 4 mps 705 mmHg 77%
    03:00 +14°C° 0 mm 5 mps 705 mmHg 81%
    04:00 +13°C° 0 mm 5 mps 705 mmHg 84%
    05:00 +13°C° 0 mm 5 mps 706 mmHg 87%
    06:00 +13°C° 0 mm 5 mps 706 mmHg 90%
    07:00 +15°C° 0 mm 5 mps 706 mmHg 85%
    08:00 +16°C° 0 mm 5 mps 707 mmHg 79%
    09:00 +19°C° 0 mm 5 mps 707 mmHg 74%
    10:00 +21°C° 0 mm 4 mps 707 mmHg 67%
    11:00 +23°C° 0 mm 4 mps 707 mmHg 60%
    12:00 +26°C° 0 mm 4 mps 707 mmHg 53%
    13:00 +26°C° 0 mm 3 mps 706 mmHg 51%
    14:00 +26°C° 0 mm 3 mps 706 mmHg 49%
    15:00 +26°C° 0 mm 2 mps 705 mmHg 47%
    16:00 +24°C° 0.3 mm 2 mps 705 mmHg 56%
    17:00 +21°C° 0.3 mm 2 mps 705 mmHg 65%
    18:00 +19°C° 0.3 mm 2 mps 704 mmHg 74%
    19:00 +18°C° 0.1 mm 2 mps 704 mmHg 76%
    20:00 +17°C° 0.1 mm 2 mps 704 mmHg 78%
    21:00 +16°C° 0.1 mm 1 mps 705 mmHg 81%
    22:00 +16°C° 0.1 mm 1 mps 705 mmHg 79%
    23:00 +16°C° 0.1 mm 1 mps 705 mmHg 78%

    14 April, Tuesday

    Time Temperature Precipitation Wind Pressure Humidity
    00:00 +16°C° 0.1 mm 1 mps 705 mmHg 77%
    01:00 +15°C° 0.2 mm 1 mps 705 mmHg 79%
    02:00 +14°C° 0.2 mm 0 mps 704 mmHg 81%
    03:00 +14°C° 0.2 mm 0 mps 704 mmHg 83%
    04:00 +14°C° 0.2 mm 0 mps 704 mmHg 85%
    05:00 +13°C° 0.2 mm 0 mps 705 mmHg 86%
    06:00 +14°C° 0.2 mm 1 mps 705 mmHg 88%
    07:00 +14°C° 0.3 mm 0 mps 705 mmHg 85%
    08:00 +16°C° 0.3 mm 0 mps 705 mmHg 82%
    09:00 +17°C° 0.3 mm 0 mps 706 mmHg 79%
    10:00 +18°C° 0.2 mm 0 mps 706 mmHg 75%
    11:00 +21°C° 0.2 mm 1 mps 706 mmHg 70%
    12:00 +23°C° 0.2 mm 1 mps 706 mmHg 66%
    13:00 +23°C° 0.7 mm 2 mps 706 mmHg 67%
    14:00 +22°C° 0.7 mm 3 mps 705 mmHg 69%
    15:00 +22°C° 0.7 mm 3 mps 705 mmHg 70%
    16:00 +20°C° 0.7 mm 3 mps 705 mmHg 76%
    17:00 +19°C° 0.7 mm 3 mps 705 mmHg 81%
    18:00 +18°C° 0.7 mm 3 mps 704 mmHg 87%
    19:00 +17°C° 0 mm 2 mps 705 mmHg 88%
    20:00 +16°C° 0 mm 2 mps 705 mmHg 90%
    21:00 +15°C° 0 mm 2 mps 705 mmHg 91%
    22:00 +14°C° 0 mm 2 mps 705 mmHg 90%
    23:00 +14°C° 0 mm 2 mps 705 mmHg 90%
    Show more